Weather Roundup
Issued by NWS Chicago, IL

Home | Current Version | Previous Version | Text Only | Print | Product List | Glossary Off
Versions: 1 2 3 4 5 6 7 8 9 10 11 12 13 14 15 16 17 18 19 20 21 22 23 24 25 26 27 28 29 30 31 32 33 34 35 36 37 38 39 40 41 42 43 44 45 46 47 48 49 50

000
NZUS59 KLOT 230304
HRRLOT

CHICAGO AREA WEATHER ROUNDUP
NATIONAL WEATHER SERVICE CHICAGO/ROMEOVILLE IL
1000 PM CDT MON MAY 22 2017

NOTE: "FAIR" INDICATES FEW OR NO CLOUDS BELOW 12,000 FEET WITH NO
SIGNIFICANT WEATHER AND/OR OBSTRUCTIONS TO VISIBILITY.

* THESE STATIONS ARE NOT UNDER NWS QUALITY CONTROL. THEY ALSO MAY NOT
  REPORT WEATHER SUCH AS PRECIPITATION OR FOG.

ILZ005-006-012>014-019>023-230400-
NORTHEAST ILLINOIS

CITY           SKY/WX    TMP DP  RH WIND       PRES   REMARKS
OHARE          CLOUDY    61  53  75 SW15G22   29.91S
MIDWAY         LGT RAIN  60  55  83 SW13      29.93R
AURORA         CLOUDY    60  56  86 S12       29.92F
LANSING*       CLOUDY    62  52  69 W14       29.94S
WAUKEGAN       CLOUDY    61  54  77 SW18G25   29.88R
DUPAGE AIRPORT CLOUDY    59  56  89 SW14      29.91F
WHEELING       CLOUDY    62  54  74 SW14      29.92S
MORRIS*        CLOUDY    58  56  91 CALM      29.93F
LEWIS AIRPORT* CLOUDY    58  57  96 SW13      29.93F
NORTHERLY ISL    N/A     61  52  72 SW8         N/A
$$

WIZ051-052-058>065-066-070>072-230400-
SOUTHEAST WISCONSIN

CITY           SKY/WX    TMP DP  RH WIND       PRES   REMARKS
MILWAUKEE      MOCLDY    63  54  72 SW9       29.87R
KENOSHA*       CLOUDY    63  53  70 SW15      29.88R
RACINE*        MOCLDY    63  52  67 SW8       29.88S
$$

INZ001>003-010>013-019-020-230400-
NORTHWEST INDIANA

CITY           SKY/WX    TMP DP  RH WIND       PRES   REMARKS
GARY*          CLOUDY    66  48  52 W17       29.94F
MICHIGAN CITY* NOT AVBL
RENSSELAER*    NOT AVBL
VALPARAISO     CLOUDY    64  52  64 SW10      29.94F
$$

LMZ740>746-230400-
SOUTHERN LAKE MICHIGAN

STATION/POSITION TIME  SKY/WX   TEMP WIND        PRES    VSBY
                                AIR  DIR/SP/G
                 (UTC)          (F)  (DEG/KT/KT) (MB)    (MI)
HARRISON CRIB    0240            63  220/ 26/ 32   N/A
BURNHAM HARBOR   0300            61  170/  8/ 15   N/A
CALUMET HARBOR   0230            63  200/ 12/ 20 1013.0F
BURNS HARBOR     0240            64  230/ 11/ 15 1014.2S
MICHIGAN CITY    0240            64  210/ 18/ 21   N/A
$$

ABBREVIATIONS USED IN REMARKS
   TC - TEMPERATURE IN CELSIUS
  WCI - WIND CHILL INDEX
   HX - HEAT INDEX
  VSB - VISIBILITY
$$



USA.gov is the U.S. government's official web portal to all federal, state and local government web resources and services.